Medicine Lodge, KS

7:00 PM CDT on May 27, 2017 (GMT -0500)
Medicine Lodge

Weather History for KP28 - March, 2014

Change the Weather History Date:

Friday, March 7, 2014

  Actual Average Record
Temperature  
Mean Temperature 47 °F 44 °F  
Max Temperature 60 °F 57 °F 80 °F (1974)
Min Temperature 33 °F 32 °F -3 °F (1920)
Degree Days  
Heating Degree Days 18 21  
Month to date heating degree days 282 154  
Since 1 July heating degree days 4233 3683  
Cooling Degree Days 0 0  
Month to date cooling degree days 0 0  
Year to date cooling degree days 0 0  
Moisture  
Dew Point 34 °F    
Average Humidity 74    
Maximum Humidity 100    
Minimum Humidity 47    
Precipitation  
Precipitation 0.00 in 0.08 in 0.72 in (1990)
Month to date precipitation 0.32 0.47  
Year to date precipitation 1.27 2.22  
Snow  
Snow 0.00 in 0.10 in - ()
Month to date snowfall 0.0 0.1  
Since 1 July snowfall 23.0 8.5  
Snow Depth 0.00 in    
Sea Level Pressure  
Sea Level Pressure 29.84 in    
Wind  
Wind Speed 14 mph (East)    
Max Wind Speed 32 mph    
Max Gust Speed 42 mph    
T = Trace of Precipitation, MM = Missing Value Source: NWS Daily Summary

Daily Weather History Graph

Daily Weather History Graph

Search for Another Location

Airport or City:

Trip Planner

Search our weather history database for the weather conditions in past years. The results will help you decide how hot, cold, wet, or windy it might be!

Date:

Astronomy

Mar. 07, 2014 Rise Set
Actual Time 6:56 AM CST 6:34 PM CST
Civil Twilight 6:30 AM CST 7:00 PM CST
Nautical Twilight 6:00 AM CST 7:30 PM CST
Astronomical Twilight 5:30 AM CST 8:00 PM CST
Moon 10:58 AM CST (3/7) 12:32 AM CST (3/7)
Length of Visible Light 12h 29m
Length of Day
11h 37m
Waxing Crescent, 42% of the Moon is Illuminated
Mar 7
Waxing Crescent
Mar 8
First Quarter
Mar 16
Full
Mar 23
Last Quarter
Mar 30
New

Hourly Weather History & Observations

Time (CST) Temp. Windchill Dew Point Humidity Pressure Visibility Wind Dir Wind Speed Gust Speed Precip Events Conditions
12:56 AM 37.0 °F 29.8 °F 34.0 °F 89% 29.88 in - SE 10.4 mph - N/A   Unknown
1:56 AM 34.0 °F 26.0 °F 33.1 °F 96% 29.87 in - SE 10.4 mph - N/A   Unknown
2:56 AM 33.1 °F 24.9 °F 32.0 °F 96% 29.85 in - ESE 10.4 mph - N/A   Unknown
3:56 AM 33.1 °F 26.1 °F 32.0 °F 96% 29.83 in - ESE 8.1 mph - N/A   Unknown
4:56 AM 33.1 °F 24.9 °F 32.0 °F 96% 29.81 in - ESE 10.4 mph - N/A   Unknown
5:56 AM 33.1 °F 25.5 °F 32.0 °F 96% 29.80 in - ESE 9.2 mph - N/A   Unknown
6:56 AM 34.0 °F 26.0 °F 32.0 °F 92% 29.79 in - ESE 10.4 mph - N/A   Unknown
7:56 AM 35.1 °F 26.4 °F 33.1 °F 92% 29.78 in - SE 12.7 mph 20.7 mph N/A   Unknown
8:56 AM 37.9 °F 30.5 °F 35.1 °F 89% 29.77 in - SE 11.5 mph - N/A   Unknown
9:56 AM 42.1 °F 35.7 °F 36.0 °F 79% 29.76 in - SSE 11.5 mph 19.6 mph N/A   Unknown
10:56 AM 46.0 °F 41.9 °F 37.0 °F 71% 29.76 in - SSE 8.1 mph - N/A   Unknown
11:56 AM 48.0 °F - 37.9 °F 68% 29.76 in - SSE 6.9 mph - N/A   Unknown
12:56 PM 51.1 °F - 37.0 °F 59% 29.75 in - South 8.1 mph - N/A   Unknown
1:56 PM 55.9 °F - 37.0 °F 49% 29.74 in - NW 3.5 mph - N/A   Unknown
2:56 PM 57.9 °F - 37.0 °F 46% 29.75 in - North 5.8 mph - N/A   Unknown
3:56 PM 57.9 °F - 37.0 °F 46% 29.76 in - North 9.2 mph - N/A   Unknown
4:56 PM 55.0 °F - 37.9 °F 53% 29.81 in - NNE 11.5 mph - N/A   Unknown
5:56 PM 50.0 °F - 37.9 °F 63% 29.84 in - North 19.6 mph - N/A   Unknown
6:56 PM 43.0 °F 33.3 °F 35.1 °F 74% 29.89 in - North 25.3 mph 34.5 mph N/A   Unknown
7:56 PM 39.9 °F 29.0 °F 34.0 °F 79% 29.94 in - North 26.5 mph 33.4 mph N/A   Unknown
8:56 PM 37.9 °F 26.8 °F 33.1 °F 83% 29.98 in - North 24.2 mph 35.7 mph N/A   Unknown
9:56 PM 36.0 °F 24.2 °F 30.0 °F 79% 30.00 in - North 24.2 mph 36.8 mph N/A   Unknown
10:56 PM 35.1 °F 22.2 °F 28.9 °F 78% 30.02 in - NNE 27.6 mph 38.0 mph N/A   Unknown
11:56 PM 34.0 °F 21.5 °F 27.0 °F 75% 30.04 in - North 24.2 mph 34.5 mph N/A   Unknown